Altus, OK

8:23 PM CST on December 03, 2016 (GMT -0600)
Altus Municipal

Weather History for KAXS - October, 2013

Change the Weather History Date:

Thursday, October 31, 2013

  Actual Average (KLTS) Record (KLTS)
Temperature  
Mean Temperature 60 °F -  
Max Temperature 70 °F 65 °F 85 °F (2010)
Min Temperature 51 °F 44 °F 37 °F (1996)
Degree Days  
Heating Degree Days 4    
Growing Degree Days 10 (Base 50)    
Moisture  
Dew Point 44 °F    
Average Humidity 56    
Maximum Humidity 85    
Minimum Humidity 26    
Precipitation  
Precipitation 0.09 in - - ()
Sea Level Pressure  
Sea Level Pressure 29.79 in    
Wind  
Wind Speed 13 mph (West)    
Max Wind Speed 31 mph    
Max Gust Speed 39 mph    
Visibility 10 miles    
Events Rain , Thunderstorm    
Averages and records for this station are not official NWS values.
T = Trace of Precipitation, MM = Missing Value Source: NWS Daily Summary

Daily Weather History Graph

Daily Weather History Graph

Search for Another Location

Airport or City:

Trip Planner

Search our weather history database for the weather conditions in past years. The results will help you decide how hot, cold, wet, or windy it might be!

Date:

Astronomy

Oct. 31, 2013 Rise Set
Actual Time 7:57 AM CDT 6:44 PM CDT
Civil Twilight 7:31 AM CDT 7:10 PM CDT
Nautical Twilight 7:01 AM CDT 7:39 PM CDT
Astronomical Twilight 6:31 AM CDT 8:09 PM CDT
Moon 4:55 AM CDT (10/31) 4:57 PM CDT (10/31)
Length of Visible Light 11h 39m
Length of Day
10h 46m
Waning Crescent, 10% of the Moon is Illuminated
Oct 31
Waning Crescent
Nov 3
New
Nov 9
First Quarter
Nov 17
Full
Nov 25
Last Quarter

Hourly Weather History & Observations

Time (CDT) Temp. Dew Point Humidity Pressure Visibility Wind Dir Wind Speed Gust Speed Precip Events Conditions
12:15 AM 66.2 °F 61.3 °F 84% 29.77 in 4.0 mi WSW 17.3 mph 28.8 mph 0.05 in Rain , Thunderstorm Heavy Thunderstorms and Rain
12:35 AM 65.3 °F 60.8 °F 85% 29.75 in 10.0 mi SW 9.2 mph - 0.07 in Rain Light Rain
12:55 AM 64.9 °F 59.9 °F 84% 29.76 in 10.0 mi SW 15.0 mph - 0.07 in Rain Light Rain
1:15 AM 64.9 °F 57.6 °F 77% 29.72 in 10.0 mi South 12.7 mph - 0.02 in Rain Rain
1:35 AM 64.0 °F 57.9 °F 80% 29.70 in 10.0 mi South 8.1 mph - 0.02 in   Scattered Clouds
1:55 AM 64.0 °F 58.1 °F 81% 29.70 in 10.0 mi South 10.4 mph - 0.02 in   Scattered Clouds
2:15 AM 64.0 °F 58.5 °F 82% 29.67 in 10.0 mi South 10.4 mph - N/A   Clear
2:35 AM 63.9 °F 58.5 °F 83% 29.67 in 10.0 mi South 8.1 mph - N/A   Clear
2:55 AM 63.5 °F 59.0 °F 85% 29.69 in 10.0 mi SSW 9.2 mph - N/A   Clear
3:15 AM 63.5 °F 58.6 °F 84% 29.69 in 10.0 mi SSW 11.5 mph - N/A   Clear
3:35 AM 64.0 °F 58.3 °F 82% 29.69 in 10.0 mi SW 11.5 mph - N/A   Clear
3:55 AM 63.9 °F 58.3 °F 82% 29.69 in 10.0 mi SW 11.5 mph - N/A   Clear
4:15 AM 63.9 °F 58.1 °F 81% 29.69 in 10.0 mi SW 13.8 mph - N/A   Clear
4:35 AM 63.5 °F 57.2 °F 80% 29.68 in 10.0 mi SW 10.4 mph - N/A   Clear
4:55 AM 63.5 °F 55.4 °F 75% 29.68 in 10.0 mi WSW 11.5 mph - N/A   Clear
5:15 AM 62.6 °F 50.7 °F 65% 29.69 in 10.0 mi WSW 13.8 mph - N/A   Clear
5:35 AM 60.6 °F 46.8 °F 60% 29.69 in 10.0 mi WSW 13.8 mph - N/A   Clear
5:55 AM 60.1 °F 40.3 °F 48% 29.70 in 10.0 mi West 18.4 mph 23.0 mph N/A   Clear
6:15 AM 56.8 °F 42.3 °F 58% 29.70 in 10.0 mi West 12.7 mph - N/A   Clear
6:35 AM 57.2 °F 40.3 °F 53% 29.71 in 10.0 mi West 17.3 mph - N/A   Clear
6:55 AM 56.1 °F 39.9 °F 55% 29.72 in 10.0 mi West 13.8 mph - N/A   Clear
7:15 AM 53.4 °F 42.3 °F 66% 29.73 in 10.0 mi West 10.4 mph - N/A   Clear
7:35 AM 52.7 °F 40.8 °F 64% 29.73 in 10.0 mi West 10.4 mph - N/A   Clear
7:55 AM 52.9 °F 39.2 °F 60% 29.73 in 10.0 mi WSW 9.2 mph - N/A   Clear
8:15 AM 52.9 °F 38.7 °F 58% 29.73 in 10.0 mi WSW 10.4 mph - N/A   Clear
8:35 AM 53.8 °F 38.5 °F 56% 29.74 in 10.0 mi WSW 12.7 mph - N/A   Clear
8:55 AM 53.6 °F 39.4 °F 59% 29.75 in 10.0 mi WSW 12.7 mph - N/A   Clear
9:15 AM 54.9 °F 42.3 °F 63% 29.76 in 10.0 mi West 18.4 mph 23.0 mph N/A   Clear
9:35 AM 55.4 °F 43.9 °F 65% 29.78 in 10.0 mi WNW 25.3 mph 38.0 mph N/A   Clear
9:55 AM 56.3 °F 45.5 °F 67% 29.79 in 10.0 mi WNW 25.3 mph 33.4 mph N/A   Clear
10:15 AM 56.7 °F 44.8 °F 64% 29.81 in 10.0 mi NW 29.9 mph 36.8 mph N/A   Clear
10:35 AM 56.7 °F 44.2 °F 63% 29.82 in 10.0 mi NNW 31.1 mph 39.1 mph N/A   Clear
10:55 AM 57.2 °F 45.0 °F 64% 29.83 in 10.0 mi NNW 26.5 mph 34.5 mph N/A   Clear
11:15 AM 58.3 °F 43.3 °F 58% 29.85 in 10.0 mi NNW 27.6 mph 39.1 mph N/A   Clear
11:35 AM 59.5 °F 43.2 °F 55% 29.86 in 10.0 mi NW 29.9 mph 36.8 mph N/A   Clear
11:55 AM 61.0 °F 43.5 °F 53% 29.87 in 10.0 mi NNW 27.6 mph 33.4 mph N/A   Clear
12:15 PM 61.7 °F 42.6 °F 50% 29.87 in 10.0 mi NNW 25.3 mph 28.8 mph N/A   Clear
12:35 PM 63.3 °F 41.4 °F 45% 29.87 in 10.0 mi NNW 18.4 mph 28.8 mph N/A   Clear
12:55 PM 64.2 °F 41.0 °F 43% 29.87 in 10.0 mi NNW 20.7 mph 25.3 mph N/A   Clear
1:15 PM 65.8 °F 39.7 °F 38% 29.86 in 10.0 mi NNW 18.4 mph 24.2 mph N/A   Clear
1:35 PM 66.9 °F 38.7 °F 35% 29.86 in 10.0 mi NNW 23.0 mph 28.8 mph N/A   Clear
1:55 PM 67.1 °F 38.3 °F 35% 29.85 in 10.0 mi NNW 18.4 mph 26.5 mph N/A   Clear
2:15 PM 68.0 °F 38.1 °F 33% 29.83 in 10.0 mi NNW 17.3 mph 20.7 mph N/A   Clear
2:35 PM 68.9 °F 37.2 °F 31% 29.83 in 10.0 mi NW 18.4 mph 23.0 mph N/A   Clear
2:55 PM 68.9 °F 36.9 °F 31% 29.83 in 10.0 mi NW 12.7 mph 21.9 mph N/A   Clear
3:15 PM 69.4 °F 36.5 °F 30% 29.83 in 10.0 mi NW 10.4 mph 19.6 mph N/A   Clear
3:35 PM 70.0 °F 35.4 °F 28% 29.82 in 10.0 mi NW 12.7 mph 23.0 mph N/A   Clear
3:55 PM 70.0 °F 34.9 °F 28% 29.82 in 10.0 mi NW 12.7 mph 20.7 mph N/A   Clear
4:15 PM 70.7 °F 35.1 °F 27% 29.82 in 10.0 mi NW 13.8 mph 21.9 mph N/A   Clear
4:35 PM 69.8 °F 34.9 °F 28% 29.82 in 10.0 mi WNW 10.4 mph 16.1 mph N/A   Clear
4:55 PM 70.2 °F 35.2 °F 28% 29.82 in 10.0 mi NW 11.5 mph - N/A   Clear
5:15 PM 70.2 °F 34.0 °F 26% 29.82 in 10.0 mi NW 6.9 mph 18.4 mph N/A   Clear
5:35 PM 69.8 °F 34.7 °F 27% 29.82 in 10.0 mi West 9.2 mph - N/A   Clear
5:55 PM 69.3 °F 34.2 °F 27% 29.82 in 10.0 mi NW 9.2 mph - N/A   Clear
6:15 PM 68.4 °F 35.4 °F 30% 29.82 in 10.0 mi NNW 5.8 mph - N/A   Clear
6:35 PM 66.2 °F 37.0 °F 34% 29.82 in 10.0 mi Calm Calm - N/A   Clear
6:55 PM 64.6 °F 37.9 °F 37% 29.82 in 10.0 mi Calm Calm - N/A   Clear
7:15 PM 63.3 °F 40.3 °F 43% 29.83 in 10.0 mi Calm Calm - N/A   Clear
7:35 PM 63.3 °F 38.7 °F 40% 29.84 in 10.0 mi South 3.5 mph - N/A   Clear
7:55 PM 60.3 °F 41.2 °F 49% 29.84 in 10.0 mi SSW 3.5 mph - N/A   Clear
8:15 PM 58.3 °F 41.2 °F 53% 29.84 in 10.0 mi Calm Calm - N/A   Clear
8:35 PM 59.2 °F 39.4 °F 48% 29.85 in 10.0 mi Calm Calm - N/A   Clear
8:55 PM 59.2 °F 39.2 °F 48% 29.85 in 10.0 mi SE 4.6 mph - N/A   Clear
9:15 PM 56.5 °F 41.0 °F 56% 29.85 in 10.0 mi SSE 5.8 mph - N/A   Clear
9:35 PM 56.3 °F 40.8 °F 56% 29.85 in 10.0 mi ESE 5.8 mph - N/A   Clear
9:55 PM 54.5 °F 41.5 °F 62% 29.85 in 10.0 mi ESE 5.8 mph - N/A   Clear
10:15 PM 54.0 °F 41.9 °F 64% 29.85 in 10.0 mi ESE 5.8 mph - N/A   Clear
10:35 PM 53.2 °F 42.1 °F 66% 29.86 in 10.0 mi ESE 6.9 mph - N/A   Clear
10:55 PM 52.5 °F 42.1 °F 68% 29.86 in 10.0 mi ESE 6.9 mph - N/A   Clear
11:15 PM 52.3 °F 42.1 °F 68% 29.86 in 10.0 mi ESE 4.6 mph - N/A   Clear
11:35 PM 51.8 °F 42.1 °F 69% 29.85 in 10.0 mi ESE 5.8 mph - N/A   Clear
11:55 PM 52.2 °F 41.9 °F 68% 29.85 in 10.0 mi East 6.9 mph - N/A   Clear